Time,TemperatureF,DewpointF,PressureIn,WindDirection,WindDirectionDegrees,WindSpeedMPH,WindSpeedGustMPH,Humidity,HourlyPrecipIn,Conditions,Clouds,dailyrainin,SoftwareType,DateUTC
2013-03-04 00:00:00,22.6,11.6,30.55,East,87,0.0,1.0,62,0.00,,---,0.00,VWS V14.01,2013-03-04 09:00:00,
2013-03-04 00:04:00,23.3,11.9,30.54,East,87,0.0,2.0,61,0.00,,---,0.00,VWS V14.01,2013-03-04 09:04:00,
2013-03-04 00:09:00,23.5,12.0,30.54,East,87,0.0,2.0,61,0.00,,---,0.00,VWS V14.01,2013-03-04 09:09:00,
2013-03-04 00:14:00,23.5,12.0,30.54,East,87,0.0,2.0,61,0.00,,---,0.00,VWS V14.01,2013-03-04 09:14:00,
2013-03-04 00:19:00,23.3,11.9,30.54,East,87,0.0,2.0,61,0.00,,---,0.00,VWS V14.01,2013-03-04 09:19:00,
2013-03-04 00:24:00,23.2,11.8,30.54,East,87,1.0,2.0,61,0.00,,---,0.00,VWS V14.01,2013-03-04 09:24:00,
2013-03-04 00:29:00,23.1,11.7,30.54,East,87,0.0,2.0,61,0.00,,---,0.00,VWS V14.01,2013-03-04 09:29:00,
2013-03-04 00:30:00,22.0,11.4,30.55,East,87,0.0,1.0,63,0.00,,---,0.00,VWS V14.01,2013-03-04 09:30:00,
2013-03-04 00:34:00,22.9,11.8,30.55,East,87,0.0,0.0,62,0.00,,---,0.00,VWS V14.01,2013-03-04 09:34:00,
2013-03-04 00:39:00,22.7,11.6,30.55,East,87,0.0,0.0,62,0.00,,---,0.00,VWS V14.01,2013-03-04 09:39:00,
2013-03-04 00:44:00,22.5,11.5,30.55,East,87,0.0,0.0,62,0.00,,---,0.00,VWS V14.01,2013-03-04 09:44:00,
2013-03-04 00:49:00,22.4,11.7,30.55,East,87,0.0,0.0,63,0.00,,---,0.00,VWS V14.01,2013-03-04 09:49:00,
2013-03-04 00:54:00,22.3,11.6,30.54,East,87,0.0,1.0,63,0.00,,---,0.00,VWS V14.01,2013-03-04 09:54:00,
2013-03-04 00:59:00,22.4,11.4,30.55,East,87,0.0,1.0,62,0.00,,---,0.00,VWS V14.01,2013-03-04 09:59:00,
2013-03-04 01:00:00,22.8,11.4,30.55,East,87,0.0,1.0,61,0.00,,---,0.00,VWS V14.01,2013-03-04 10:00:00,
2013-03-04 01:04:00,22.6,11.6,30.55,East,87,0.0,0.0,62,0.00,,---,0.00,VWS V14.01,2013-03-04 10:04:00,
2013-03-04 01:09:00,22.5,11.5,30.55,East,87,0.0,0.0,62,0.00,,---,0.00,VWS V14.01,2013-03-04 10:09:00,
2013-03-04 01:14:00,22.3,11.6,30.55,East,87,0.0,0.0,63,0.00,,---,0.00,VWS V14.01,2013-03-04 10:14:00,
2013-03-04 01:19:00,22.1,11.4,30.55,East,87,0.0,0.0,63,0.00,,---,0.00,VWS V14.01,2013-03-04 10:19:00,
2013-03-04 01:24:00,22.0,11.4,30.55,East,87,0.0,1.0,63,0.00,,---,0.00,VWS V14.01,2013-03-04 10:24:00,
2013-03-04 01:29:00,22.1,11.4,30.55,East,87,0.0,1.0,63,0.00,,---,0.00,VWS V14.01,2013-03-04 10:29:00,
2013-03-04 01:30:00,23.3,11.1,30.55,East,81,0.0,2.0,59,0.00,,---,0.00,VWS V14.01,2013-03-04 10:30:00,
2013-03-04 01:34:00,22.0,11.4,30.55,East,87,0.0,0.0,63,0.00,,---,0.00,VWS V14.01,2013-03-04 10:34:00,
2013-03-04 01:39:00,22.0,11.4,30.55,East,87,0.0,0.0,63,0.00,,---,0.00,VWS V14.01,2013-03-04 10:39:00,
2013-03-04 01:44:00,22.0,11.4,30.55,East,87,0.0,0.0,63,0.00,,---,0.00,VWS V14.01,2013-03-04 10:44:00,
2013-03-04 01:49:00,22.1,11.4,30.55,East,87,0.0,1.0,63,0.00,,---,0.00,VWS V14.01,2013-03-04 10:49:00,
2013-03-04 01:54:00,22.4,11.4,30.55,East,87,0.0,1.0,62,0.00,,---,0.00,VWS V14.01,2013-03-04 10:54:00,
2013-03-04 01:59:00,22.6,11.2,30.55,East,87,0.0,1.0,61,0.00,,---,0.00,VWS V14.01,2013-03-04 10:59:00,
2013-03-04 02:00:00,22.3,11.3,30.56,East,81,0.0,2.0,62,0.00,,---,0.00,VWS V14.01,2013-03-04 11:00:00,
2013-03-04 02:04:00,22.8,11.4,30.55,East,87,1.0,1.0,61,0.00,,---,0.00,VWS V14.01,2013-03-04 11:04:00,
2013-03-04 02:09:00,22.9,11.5,30.55,East,87,1.0,1.0,61,0.00,,---,0.00,VWS V14.01,2013-03-04 11:09:00,
2013-03-04 02:14:00,23.1,11.3,30.55,East,87,1.0,2.0,60,0.00,,---,0.00,VWS V14.01,2013-03-04 11:14:00,
2013-03-04 02:19:00,23.4,11.2,30.55,East,81,0.0,2.0,59,0.00,,---,0.00,VWS V14.01,2013-03-04 11:19:00,
2013-03-04 02:24:00,23.5,11.3,30.55,East,81,0.0,2.0,59,0.00,,---,0.00,VWS V14.01,2013-03-04 11:24:00,
2013-03-04 02:29:00,23.4,11.2,30.55,East,81,0.0,2.0,59,0.00,,---,0.00,VWS V14.01,2013-03-04 11:29:00,
2013-03-04 02:30:00,23.3,11.1,30.56,East,81,0.0,1.0,59,0.00,,---,0.00,VWS V14.01,2013-03-04 11:30:00,
2013-03-04 02:34:00,23.2,11.4,30.55,East,81,0.0,0.0,60,0.00,,---,0.00,VWS V14.01,2013-03-04 11:34:00,
2013-03-04 02:39:00,23.0,11.2,30.56,East,81,0.0,0.0,60,0.00,,---,0.00,VWS V14.01,2013-03-04 11:39:00,
2013-03-04 02:44:00,22.8,11.0,30.55,East,81,0.0,0.0,60,0.00,,---,0.00,VWS V14.01,2013-03-04 11:44:00,
2013-03-04 02:49:00,22.7,10.9,30.56,East,81,0.0,0.0,60,0.00,,---,0.00,VWS V14.01,2013-03-04 11:49:00,
2013-03-04 02:54:00,22.5,11.1,30.56,East,81,0.0,0.0,61,0.00,,---,0.00,VWS V14.01,2013-03-04 11:54:00,
2013-03-04 02:59:00,22.4,11.4,30.56,East,81,0.0,2.0,62,0.00,,---,0.00,VWS V14.01,2013-03-04 11:59:00,
2013-03-04 03:00:00,23.4,11.2,30.57,East,81,0.0,1.0,59,0.00,,---,0.00,VWS V14.01,2013-03-04 12:00:00,
2013-03-04 03:04:00,22.2,11.2,30.56,East,81,0.0,1.0,62,0.00,,---,0.00,VWS V14.01,2013-03-04 12:04:00,
2013-03-04 03:09:00,22.1,11.1,30.56,East,81,0.0,1.0,62,0.00,,---,0.00,VWS V14.01,2013-03-04 12:09:00,
2013-03-04 03:14:00,22.3,11.3,30.56,East,81,1.0,1.0,62,0.00,,---,0.00,VWS V14.01,2013-03-04 12:14:00,
2013-03-04 03:19:00,22.8,11.4,30.56,East,81,0.0,1.0,61,0.00,,---,0.00,VWS V14.01,2013-03-04 12:19:00,
2013-03-04 03:24:00,23.0,11.2,30.56,East,81,0.0,1.0,60,0.00,,---,0.00,VWS V14.01,2013-03-04 12:24:00,
2013-03-04 03:29:00,23.2,11.4,30.56,East,81,0.0,1.0,60,0.00,,---,0.00,VWS V14.01,2013-03-04 12:29:00,
2013-03-04 03:30:00,23.2,11.0,30.57,East,81,0.0,1.0,59,0.00,,---,0.00,VWS V14.01,2013-03-04 12:30:00,
2013-03-04 03:34:00,23.3,11.1,30.56,East,81,0.0,0.0,59,0.00,,---,0.00,VWS V14.01,2013-03-04 12:34:00,
2013-03-04 03:39:00,23.2,11.0,30.56,East,81,0.0,1.0,59,0.00,,---,0.00,VWS V14.01,2013-03-04 12:39:00,
2013-03-04 03:44:00,23.2,11.0,30.56,East,81,0.0,1.0,59,0.00,,---,0.00,VWS V14.01,2013-03-04 12:44:00,
2013-03-04 03:49:00,23.2,11.0,30.57,East,81,0.0,1.0,59,0.00,,---,0.00,VWS V14.01,2013-03-04 12:49:00,
2013-03-04 03:54:00,23.3,11.1,30.57,East,81,0.0,1.0,59,0.00,,---,0.00,VWS V14.01,2013-03-04 12:54:00,
2013-03-04 03:59:00,23.4,11.6,30.57,East,81,0.0,1.0,60,0.00,,---,0.00,VWS V14.01,2013-03-04 12:59:00,
2013-03-04 04:00:00,22.6,10.8,30.57,East,81,0.0,0.0,60,0.00,,---,0.00,VWS V14.01,2013-03-04 13:00:00,
2013-03-04 04:04:00,23.4,11.2,30.57,East,81,0.0,0.0,59,0.00,,---,0.00,VWS V14.01,2013-03-04 13:04:00,
2013-03-04 04:09:00,23.4,11.2,30.57,East,81,0.0,1.0,59,0.00,,---,0.00,VWS V14.01,2013-03-04 13:09:00,
2013-03-04 04:14:00,23.4,11.2,30.57,East,81,0.0,1.0,59,0.00,,---,0.00,VWS V14.01,2013-03-04 13:14:00,
2013-03-04 04:19:00,23.5,11.3,30.56,East,81,0.0,1.0,59,0.00,,---,0.00,VWS V14.01,2013-03-04 13:19:00,
2013-03-04 04:24:00,23.5,11.3,30.57,East,81,0.0,1.0,59,0.00,,---,0.00,VWS V14.01,2013-03-04 13:24:00,
2013-03-04 04:29:00,23.3,11.1,30.57,East,81,0.0,1.0,59,0.00,,---,0.00,VWS V14.01,2013-03-04 13:29:00,
2013-03-04 04:30:00,22.0,11.0,30.57,East,81,0.0,0.0,62,0.00,,---,0.00,VWS V14.01,2013-03-04 13:30:00,
2013-03-04 04:34:00,23.2,11.0,30.57,East,81,0.0,0.0,59,0.00,,---,0.00,VWS V14.01,2013-03-04 13:34:00,
2013-03-04 04:39:00,23.2,11.8,30.57,East,81,0.0,0.0,61,0.00,,---,0.00,VWS V14.01,2013-03-04 13:39:00,
2013-03-04 04:44:00,23.2,11.4,30.57,East,81,0.0,0.0,60,0.00,,---,0.00,VWS V14.01,2013-03-04 13:44:00,
2013-03-04 04:49:00,23.1,10.9,30.57,East,81,0.0,0.0,59,0.00,,---,0.00,VWS V14.01,2013-03-04 13:49:00,
2013-03-04 04:54:00,22.9,11.1,30.57,East,81,0.0,0.0,60,0.00,,---,0.00,VWS V14.01,2013-03-04 13:54:00,
2013-03-04 04:59:00,22.7,10.9,30.57,East,81,0.0,0.0,60,0.00,,---,0.00,VWS V14.01,2013-03-04 13:59:00,
2013-03-04 05:00:00,22.4,11.0,30.58,East,81,0.0,1.0,61,0.00,,---,0.00,VWS V14.01,2013-03-04 14:00:00,
2013-03-04 05:04:00,22.5,10.7,30.57,East,81,0.0,0.0,60,0.00,,---,0.00,VWS V14.01,2013-03-04 14:04:00,
2013-03-04 05:09:00,22.2,10.8,30.57,East,81,0.0,0.0,61,0.00,,---,0.00,VWS V14.01,2013-03-04 14:09:00,
2013-03-04 05:14:00,22.0,11.0,30.57,East,81,0.0,0.0,62,0.00,,---,0.00,VWS V14.01,2013-03-04 14:14:00,
2013-03-04 05:19:00,21.8,10.8,30.57,East,81,0.0,0.0,62,0.00,,---,0.00,VWS V14.01,2013-03-04 14:19:00,
2013-03-04 05:24:00,21.9,10.9,30.57,East,81,0.0,0.0,62,0.00,,---,0.00,VWS V14.01,2013-03-04 14:24:00,
2013-03-04 05:29:00,22.0,11.0,30.57,East,81,0.0,0.0,62,0.00,,---,0.00,VWS V14.01,2013-03-04 14:29:00,
2013-03-04 05:30:00,22.3,10.9,30.58,East,81,0.0,1.0,61,0.00,,---,0.00,VWS V14.01,2013-03-04 14:30:00,
2013-03-04 05:34:00,22.0,11.0,30.57,East,81,0.0,0.0,62,0.00,,---,0.00,VWS V14.01,2013-03-04 14:34:00,
2013-03-04 05:39:00,21.9,10.9,30.57,East,81,0.0,0.0,62,0.00,,---,0.00,VWS V14.01,2013-03-04 14:39:00,
2013-03-04 05:44:00,21.9,10.9,30.58,East,81,0.0,0.0,62,0.00,,---,0.00,VWS V14.01,2013-03-04 14:44:00,
2013-03-04 05:49:00,22.0,11.0,30.57,East,81,0.0,0.0,62,0.00,,---,0.00,VWS V14.01,2013-03-04 14:49:00,
2013-03-04 05:54:00,22.1,11.1,30.58,East,81,0.0,0.0,62,0.00,,---,0.00,VWS V14.01,2013-03-04 14:54:00,
2013-03-04 05:59:00,22.3,10.9,30.57,East,81,0.0,1.0,61,0.00,,---,0.00,VWS V14.01,2013-03-04 14:59:00,
2013-03-04 06:00:00,20.4,10.5,30.57,East,81,0.0,1.0,65,0.00,,---,0.00,VWS V14.01,2013-03-04 15:00:00,
2013-03-04 06:04:00,22.5,11.1,30.57,East,81,0.0,1.0,61,0.00,,---,0.00,VWS V14.01,2013-03-04 15:04:00,
2013-03-04 06:09:00,22.5,11.1,30.57,East,81,0.0,1.0,61,0.00,,---,0.00,VWS V14.01,2013-03-04 15:09:00,
2013-03-04 06:14:00,22.6,10.8,30.58,East,81,0.0,1.0,60,0.00,,---,0.00,VWS V14.01,2013-03-04 15:14:00,
2013-03-04 06:19:00,22.5,10.7,30.58,East,81,0.0,1.0,60,0.00,,---,0.00,VWS V14.01,2013-03-04 15:19:00,
2013-03-04 06:24:00,22.4,11.0,30.58,East,81,0.0,1.0,61,0.00,,---,0.00,VWS V14.01,2013-03-04 15:24:00,
2013-03-04 06:29:00,22.4,11.0,30.58,East,81,0.0,1.0,61,0.00,,---,0.00,VWS V14.01,2013-03-04 15:29:00,
2013-03-04 06:30:00,21.3,10.7,30.57,East,81,0.0,1.0,63,0.00,,---,0.00,VWS V14.01,2013-03-04 15:30:00,
2013-03-04 06:34:00,22.2,10.8,30.58,East,81,0.0,0.0,61,0.00,,---,0.00,VWS V14.01,2013-03-04 15:34:00,
2013-03-04 06:39:00,21.9,10.9,30.58,East,81,0.0,0.0,62,0.00,,---,0.00,VWS V14.01,2013-03-04 15:39:00,
2013-03-04 06:44:00,21.6,12.0,30.58,East,81,0.0,1.0,66,0.00,,---,0.00,VWS V14.01,2013-03-04 15:44:00,
2013-03-04 06:49:00,21.3,11.0,30.57,East,81,0.0,1.0,64,0.00,,---,0.00,VWS V14.01,2013-03-04 15:49:00,
2013-03-04 06:54:00,20.7,10.5,30.57,East,81,0.0,1.0,64,0.00,,---,0.00,VWS V14.01,2013-03-04 15:54:00,
2013-03-04 06:59:00,20.4,10.5,30.57,East,81,0.0,1.0,65,0.00,,---,0.00,VWS V14.01,2013-03-04 15:59:00,
2013-03-04 07:00:00,21.4,10.4,30.57,East,81,0.0,1.0,62,0.00,,---,0.00,VWS V14.01,2013-03-04 16:00:00,
2013-03-04 07:04:00,20.4,10.5,30.57,East,81,0.0,0.0,65,0.00,,---,0.00,VWS V14.01,2013-03-04 16:04:00,
2013-03-04 07:09:00,20.5,10.6,30.57,East,81,0.0,0.0,65,0.00,,---,0.00,VWS V14.01,2013-03-04 16:09:00,
2013-03-04 07:14:00,20.7,10.8,30.57,East,81,1.0,1.0,65,0.00,,---,0.00,VWS V14.01,2013-03-04 16:14:00,
2013-03-04 07:19:00,20.9,10.6,30.57,East,81,0.0,1.0,64,0.00,,---,0.00,VWS V14.01,2013-03-04 16:19:00,
2013-03-04 07:23:00,21.0,10.8,30.57,East,81,0.0,1.0,64,0.00,,---,0.00,VWS V14.01,2013-03-04 16:23:00,
2013-03-04 07:28:00,21.2,10.9,30.57,East,81,0.0,1.0,64,0.00,,---,0.00,VWS V14.01,2013-03-04 16:28:00,
2013-03-04 07:30:00,21.4,10.4,30.56,East,81,0.0,0.0,62,0.00,,---,0.00,VWS V14.01,2013-03-04 16:30:00,
2013-03-04 07:33:00,21.4,10.8,30.57,East,81,0.0,1.0,63,0.00,,---,0.00,VWS V14.01,2013-03-04 16:33:00,
2013-03-04 07:38:00,21.5,10.5,30.57,East,81,0.0,1.0,62,0.00,,---,0.00,VWS V14.01,2013-03-04 16:38:00,
2013-03-04 07:43:00,21.6,10.6,30.57,East,81,0.0,1.0,62,0.00,,---,0.00,VWS V14.01,2013-03-04 16:43:00,
2013-03-04 07:48:00,21.4,10.4,30.57,East,81,0.0,1.0,62,0.00,,---,0.00,VWS V14.01,2013-03-04 16:48:00,
2013-03-04 07:53:00,21.4,10.4,30.57,East,81,0.0,1.0,62,0.00,,---,0.00,VWS V14.01,2013-03-04 16:53:00,
2013-03-04 07:58:00,21.4,10.4,30.57,East,81,0.0,1.0,62,0.00,,---,0.00,VWS V14.01,2013-03-04 16:58:00,
2013-03-04 08:00:00,23.8,11.2,30.57,East,81,0.0,0.0,58,0.00,,---,0.00,VWS V14.01,2013-03-04 17:00:00,
2013-03-04 08:03:00,21.4,10.4,30.57,East,81,0.0,0.0,62,0.00,,---,0.00,VWS V14.01,2013-03-04 17:03:00,
2013-03-04 08:08:00,21.4,10.4,30.57,East,81,0.0,0.0,62,0.00,,---,0.00,VWS V14.01,2013-03-04 17:08:00,
2013-03-04 08:13:00,21.4,10.4,30.57,East,81,0.0,0.0,62,0.00,,---,0.00,VWS V14.01,2013-03-04 17:13:00,
2013-03-04 08:18:00,21.4,10.4,30.57,East,81,0.0,0.0,62,0.00,,---,0.00,VWS V14.01,2013-03-04 17:18:00,
2013-03-04 08:23:00,21.4,10.4,30.57,East,81,0.0,0.0,62,0.00,,---,0.00,VWS V14.01,2013-03-04 17:23:00,
2013-03-04 08:28:00,21.4,10.4,30.57,East,81,0.0,0.0,62,0.00,,---,0.00,VWS V14.01,2013-03-04 17:28:00,
2013-03-04 08:30:00,24.6,11.2,30.57,East,81,0.0,3.0,56,0.00,,---,0.00,VWS V14.01,2013-03-04 17:30:00,
2013-03-04 08:33:00,21.4,10.4,30.56,East,81,0.0,0.0,62,0.00,,---,0.00,VWS V14.01,2013-03-04 17:33:00,
2013-03-04 08:38:00,21.4,10.4,30.56,East,81,0.0,0.0,62,0.00,,---,0.00,VWS V14.01,2013-03-04 17:38:00,
2013-03-04 08:43:00,21.4,10.4,30.56,East,81,0.0,0.0,62,0.00,,---,0.00,VWS V14.01,2013-03-04 17:43:00,
2013-03-04 08:48:00,21.4,10.4,30.56,East,81,0.0,0.0,62,0.00,,---,0.00,VWS V14.01,2013-03-04 17:48:00,
2013-03-04 08:53:00,23.5,11.3,30.56,East,81,0.0,0.0,59,0.00,,---,0.00,VWS V14.01,2013-03-04 17:53:00,
2013-03-04 08:58:00,23.8,11.6,30.57,East,81,0.0,0.0,59,0.00,,---,0.00,VWS V14.01,2013-03-04 17:58:00,
2013-03-04 09:00:00,25.6,11.7,30.57,East,81,0.0,2.0,55,0.00,,---,0.00,VWS V14.01,2013-03-04 18:00:00,
2013-03-04 09:03:00,23.8,11.2,30.57,East,81,0.0,0.0,58,0.00,,---,0.00,VWS V14.01,2013-03-04 18:03:00,
2013-03-04 09:08:00,24.0,11.4,30.57,East,81,0.0,1.0,58,0.00,,---,0.00,VWS V14.01,2013-03-04 18:08:00,
2013-03-04 09:13:00,24.3,11.3,30.57,East,81,0.0,1.0,57,0.00,,---,0.00,VWS V14.01,2013-03-04 18:13:00,
2013-03-04 09:18:00,24.5,11.5,30.57,East,81,0.0,1.0,57,0.00,,---,0.00,VWS V14.01,2013-03-04 18:18:00,
2013-03-04 09:23:00,24.5,11.5,30.57,East,81,1.0,3.0,57,0.00,,---,0.00,VWS V14.01,2013-03-04 18:23:00,
2013-03-04 09:28:00,24.6,11.6,30.57,East,81,0.0,3.0,57,0.00,,---,0.00,VWS V14.01,2013-03-04 18:28:00,
2013-03-04 09:29:00,24.6,11.6,30.57,East,81,1.0,3.0,57,0.00,,---,0.00,VWS V14.01,2013-03-04 18:29:00,
2013-03-04 09:30:00,26.5,12.1,30.57,East,81,0.0,1.0,54,0.00,,---,0.00,VWS V14.01,2013-03-04 18:30:00,
2013-03-04 09:34:00,24.7,11.2,30.57,East,81,0.0,2.0,56,0.00,,---,0.00,VWS V14.01,2013-03-04 18:34:00,
2013-03-04 09:39:00,24.8,11.3,30.57,East,81,0.0,2.0,56,0.00,,---,0.00,VWS V14.01,2013-03-04 18:39:00,
2013-03-04 09:44:00,24.8,11.3,30.57,East,81,1.0,2.0,56,0.00,,---,0.00,VWS V14.01,2013-03-04 18:44:00,
2013-03-04 09:49:00,25.0,11.5,30.57,East,81,0.0,2.0,56,0.00,,---,0.00,VWS V14.01,2013-03-04 18:49:00,
2013-03-04 09:54:00,25.2,11.7,30.57,East,81,0.0,2.0,56,0.00,,---,0.00,VWS V14.01,2013-03-04 18:54:00,
2013-03-04 09:59:00,25.4,11.5,30.57,East,81,0.0,2.0,55,0.00,,---,0.00,VWS V14.01,2013-03-04 18:59:00,
2013-03-04 10:00:00,28.3,12.5,30.56,East,88,0.0,3.0,51,0.00,,---,0.00,VWS V14.01,2013-03-04 19:00:00,
2013-03-04 10:04:00,25.7,11.8,30.57,East,81,0.0,1.0,55,0.00,,---,0.00,VWS V14.01,2013-03-04 19:04:00,
2013-03-04 10:09:00,25.9,12.0,30.57,East,81,0.0,1.0,55,0.00,,---,0.00,VWS V14.01,2013-03-04 19:09:00,
2013-03-04 10:14:00,26.3,12.3,30.57,East,81,0.0,1.0,55,0.00,,---,0.00,VWS V14.01,2013-03-04 19:14:00,
2013-03-04 10:19:00,26.4,12.0,30.57,East,81,0.0,1.0,54,0.00,,---,0.00,VWS V14.01,2013-03-04 19:19:00,
2013-03-04 10:24:00,26.5,12.1,30.57,East,81,0.0,1.0,54,0.00,,---,0.00,VWS V14.01,2013-03-04 19:24:00,
2013-03-04 10:29:00,26.5,12.1,30.57,East,81,0.0,1.0,54,0.00,,---,0.00,VWS V14.01,2013-03-04 19:29:00,
2013-03-04 10:30:00,29.4,13.1,30.55,East,88,2.0,3.0,50,0.00,,---,0.00,VWS V14.01,2013-03-04 19:30:00,
2013-03-04 10:34:00,26.6,12.2,30.57,East,81,0.0,1.0,54,0.00,,---,0.00,VWS V14.01,2013-03-04 19:34:00,
2013-03-04 10:39:00,26.9,12.1,30.57,East,81,1.0,2.0,53,0.00,,---,0.00,VWS V14.01,2013-03-04 19:39:00,
2013-03-04 10:44:00,27.2,12.4,30.57,East,81,0.0,3.0,53,0.00,,---,0.00,VWS V14.01,2013-03-04 19:44:00,
2013-03-04 10:49:00,27.6,12.3,30.56,East,88,1.0,3.0,52,0.00,,---,0.00,VWS V14.01,2013-03-04 19:49:00,
2013-03-04 10:54:00,27.9,12.6,30.56,East,88,0.0,3.0,52,0.00,,---,0.00,VWS V14.01,2013-03-04 19:54:00,
2013-03-04 10:59:00,28.3,12.5,30.56,East,88,0.0,3.0,51,0.00,,---,0.00,VWS V14.01,2013-03-04 19:59:00,
2013-03-04 11:00:00,29.7,13.4,30.55,East,90,2.0,4.0,50,0.00,,---,0.00,VWS V14.01,2013-03-04 20:00:00,
2013-03-04 11:04:00,28.7,12.4,30.56,East,88,2.0,3.0,50,0.00,,---,0.00,VWS V14.01,2013-03-04 20:04:00,
2013-03-04 11:09:00,28.8,12.5,30.56,East,88,0.0,3.0,50,0.00,,---,0.00,VWS V14.01,2013-03-04 20:09:00,
2013-03-04 11:14:00,28.8,12.5,30.56,East,88,1.0,3.0,50,0.00,,---,0.00,VWS V14.01,2013-03-04 20:14:00,
2013-03-04 11:19:00,28.8,13.4,30.55,East,88,0.0,3.0,52,0.00,,---,0.00,VWS V14.01,2013-03-04 20:19:00,
2013-03-04 11:24:00,28.9,13.1,30.55,East,88,0.0,3.0,51,0.00,,---,0.00,VWS V14.01,2013-03-04 20:24:00,
2013-03-04 11:29:00,29.2,12.9,30.55,East,88,0.0,3.0,50,0.00,,---,0.00,VWS V14.01,2013-03-04 20:29:00,
2013-03-04 11:30:00,29.6,13.7,30.55,East,90,0.0,4.0,51,0.00,,---,0.00,VWS V14.01,2013-03-04 20:30:00,
2013-03-04 11:34:00,29.5,13.2,30.55,East,89,0.0,3.0,50,0.00,,---,0.00,VWS V14.01,2013-03-04 20:34:00,
2013-03-04 11:39:00,29.6,12.8,30.55,East,90,2.0,4.0,49,0.00,,---,0.00,VWS V14.01,2013-03-04 20:39:00,
2013-03-04 11:44:00,29.4,13.5,30.55,East,90,1.0,4.0,51,0.00,,---,0.00,VWS V14.01,2013-03-04 20:44:00,
2013-03-04 11:49:00,29.4,13.1,30.55,East,90,2.0,4.0,50,0.00,,---,0.00,VWS V14.01,2013-03-04 20:49:00,
2013-03-04 11:54:00,29.5,13.2,30.55,East,90,0.0,4.0,50,0.00,,---,0.00,VWS V14.01,2013-03-04 20:54:00,
2013-03-04 11:59:00,29.6,13.3,30.55,East,90,0.0,4.0,50,0.00,,---,0.00,VWS V14.01,2013-03-04 20:59:00,
2013-03-04 12:00:00,30.3,13.4,30.55,SE,125,0.0,5.0,49,0.00,,---,0.00,VWS V14.01,2013-03-04 21:00:00,
2013-03-04 12:04:00,29.7,13.4,30.55,East,90,0.0,2.0,50,0.00,,---,0.00,VWS V14.01,2013-03-04 21:04:00,
2013-03-04 12:09:00,29.8,13.4,30.55,East,90,1.0,2.0,50,0.00,,---,0.00,VWS V14.01,2013-03-04 21:09:00,
2013-03-04 12:14:00,29.8,13.4,30.55,East,90,0.0,4.0,50,0.00,,---,0.00,VWS V14.01,2013-03-04 21:14:00,
2013-03-04 12:19:00,29.6,13.7,30.55,East,90,2.0,4.0,51,0.00,,---,0.00,VWS V14.01,2013-03-04 21:19:00,
2013-03-04 12:24:00,29.4,13.5,30.55,East,90,0.0,4.0,51,0.00,,---,0.00,VWS V14.01,2013-03-04 21:24:00,
2013-03-04 12:29:00,29.5,13.6,30.55,East,90,1.0,4.0,51,0.00,,---,0.00,VWS V14.01,2013-03-04 21:29:00,
2013-03-04 12:30:00,30.8,13.4,30.54,ESE,116,2.0,5.0,48,0.00,,---,0.00,VWS V14.01,2013-03-04 21:30:00,
2013-03-04 12:34:00,29.7,13.8,30.55,East,90,2.0,4.0,51,0.00,,---,0.00,VWS V14.01,2013-03-04 21:34:00,
2013-03-04 12:39:00,29.9,13.5,30.55,East,90,1.0,4.0,50,0.00,,---,0.00,VWS V14.01,2013-03-04 21:39:00,
2013-03-04 12:44:00,30.0,13.2,30.55,East,90,1.0,4.0,49,0.00,,---,0.00,VWS V14.01,2013-03-04 21:44:00,
2013-03-04 12:49:00,30.1,13.3,30.55,East,90,1.0,4.0,49,0.00,,---,0.00,VWS V14.01,2013-03-04 21:49:00,
2013-03-04 12:54:00,30.2,13.4,30.55,East,92,0.0,4.0,49,0.00,,---,0.00,VWS V14.01,2013-03-04 21:54:00,
2013-03-04 12:59:00,30.2,13.4,30.55,SE,125,1.0,5.0,49,0.00,,---,0.00,VWS V14.01,2013-03-04 21:59:00,
2013-03-04 13:00:00,31.4,12.5,30.53,ESE,116,1.0,4.0,45,0.00,,---,0.00,VWS V14.01,2013-03-04 22:00:00,
2013-03-04 13:04:00,30.3,13.0,30.55,SE,144,1.0,4.0,48,0.00,,---,0.00,VWS V14.01,2013-03-04 22:04:00,
2013-03-04 13:09:00,30.3,13.4,30.54,ESE,115,5.0,5.0,49,0.00,,---,0.00,VWS V14.01,2013-03-04 22:09:00,
2013-03-04 13:14:00,30.4,13.1,30.54,ESE,106,1.0,5.0,48,0.00,,---,0.00,VWS V14.01,2013-03-04 22:14:00,
2013-03-04 13:19:00,30.5,12.7,30.54,ESE,106,1.0,5.0,47,0.00,,---,0.00,VWS V14.01,2013-03-04 22:19:00,
2013-03-04 13:24:00,30.6,12.8,30.54,SE,134,1.0,5.0,47,0.00,,---,0.00,VWS V14.01,2013-03-04 22:24:00,
2013-03-04 13:29:00,30.7,13.4,30.54,SE,135,1.0,5.0,48,0.00,,---,0.00,VWS V14.01,2013-03-04 22:29:00,
2013-03-04 13:30:00,32.3,13.4,30.52,ESE,120,0.0,5.0,45,0.00,,---,0.00,VWS V14.01,2013-03-04 22:30:00,
2013-03-04 13:34:00,30.8,13.4,30.53,ESE,116,0.0,2.0,48,0.00,,---,0.00,VWS V14.01,2013-03-04 22:34:00,
2013-03-04 13:39:00,31.0,13.1,30.53,ESE,116,1.0,4.0,47,0.00,,---,0.00,VWS V14.01,2013-03-04 22:39:00,
2013-03-04 13:44:00,31.2,13.3,30.53,ESE,116,1.0,4.0,47,0.00,,---,0.00,VWS V14.01,2013-03-04 22:44:00,
2013-03-04 13:49:00,31.3,12.9,30.53,ESE,116,0.0,4.0,46,0.00,,---,0.00,VWS V14.01,2013-03-04 22:49:00,
2013-03-04 13:54:00,31.4,13.0,30.53,ESE,116,1.0,4.0,46,0.00,,---,0.00,VWS V14.01,2013-03-04 22:54:00,
2013-03-04 13:59:00,31.4,12.5,30.53,ESE,116,1.0,4.0,45,0.00,,---,0.00,VWS V14.01,2013-03-04 22:59:00,
2013-03-04 14:00:00,33.0,13.5,30.51,East,97,0.0,4.0,44,0.00,,---,0.00,VWS V14.01,2013-03-04 23:00:00,
2013-03-04 14:04:00,31.4,12.5,30.53,ESE,116,1.0,4.0,45,0.00,,---,0.00,VWS V14.01,2013-03-04 23:04:00,
2013-03-04 14:09:00,31.5,12.6,30.53,ESE,116,0.0,4.0,45,0.00,,---,0.00,VWS V14.01,2013-03-04 23:09:00,
2013-03-04 14:14:00,31.8,12.9,30.53,SE,130,0.0,4.0,45,0.00,,---,0.00,VWS V14.01,2013-03-04 23:14:00,
2013-03-04 14:19:00,32.0,13.1,30.53,SE,129,0.0,4.0,45,0.00,,---,0.00,VWS V14.01,2013-03-04 23:19:00,
2013-03-04 14:24:00,32.1,13.2,30.53,SE,130,1.0,4.0,45,0.00,,---,0.00,VWS V14.01,2013-03-04 23:24:00,
2013-03-04 14:29:00,32.2,13.3,30.52,ESE,120,0.0,5.0,45,0.00,,---,0.00,VWS V14.01,2013-03-04 23:29:00,
2013-03-04 14:30:00,33.0,13.5,30.51,East,97,0.0,2.0,44,0.00,,---,0.00,VWS V14.01,2013-03-04 23:30:00,
2013-03-04 14:34:00,32.4,13.4,30.52,ESE,120,0.0,1.0,45,0.00,,---,0.00,VWS V14.01,2013-03-04 23:34:00,
2013-03-04 14:39:00,32.7,13.2,30.52,ESE,120,1.0,2.0,44,0.00,,---,0.00,VWS V14.01,2013-03-04 23:39:00,
2013-03-04 14:44:00,32.7,12.7,30.52,East,97,1.0,4.0,43,0.00,,---,0.00,VWS V14.01,2013-03-04 23:44:00,
2013-03-04 14:49:00,32.6,13.1,30.52,East,97,4.0,4.0,44,0.00,,---,0.00,VWS V14.01,2013-03-04 23:49:00,
2013-03-04 14:54:00,32.7,13.2,30.52,East,97,1.0,4.0,44,0.00,,---,0.00,VWS V14.01,2013-03-04 23:54:00,
2013-03-04 14:59:00,32.9,13.4,30.52,East,97,1.0,4.0,44,0.00,,---,0.00,VWS V14.01,2013-03-04 23:59:00,
2013-03-04 15:00:00,33.3,13.8,30.50,East,97,0.0,2.0,44,0.00,,---,0.00,VWS V14.01,2013-03-05 00:00:00,
2013-03-04 15:04:00,33.0,13.0,30.51,East,97,1.0,2.0,43,0.00,,---,0.00,VWS V14.01,2013-03-05 00:04:00,
2013-03-04 15:09:00,33.0,13.0,30.51,East,97,1.0,2.0,43,0.00,,---,0.00,VWS V14.01,2013-03-05 00:09:00,
2013-03-04 15:14:00,33.0,14.0,30.51,East,97,1.0,2.0,45,0.00,,---,0.00,VWS V14.01,2013-03-05 00:14:00,
2013-03-04 15:19:00,33.0,13.0,30.51,East,97,1.0,2.0,43,0.00,,---,0.00,VWS V14.01,2013-03-05 00:19:00,
2013-03-04 15:24:00,33.1,13.6,30.50,East,97,2.0,2.0,44,0.00,,---,0.00,VWS V14.01,2013-03-05 00:24:00,
2013-03-04 15:29:00,33.0,13.5,30.50,East,97,0.0,2.0,44,0.00,,---,0.00,VWS V14.01,2013-03-05 00:29:00,
2013-03-04 15:30:00,33.2,13.7,30.50,South,169,1.0,5.0,44,0.00,,---,0.00,VWS V14.01,2013-03-05 00:30:00,
2013-03-04 15:34:00,33.0,13.5,30.51,East,97,1.0,2.0,44,0.00,,---,0.00,VWS V14.01,2013-03-05 00:34:00,
2013-03-04 15:39:00,33.0,13.5,30.50,East,97,0.0,2.0,44,0.00,,---,0.00,VWS V14.01,2013-03-05 00:39:00,
2013-03-04 15:44:00,33.1,13.6,30.50,East,97,0.0,2.0,44,0.00,,---,0.00,VWS V14.01,2013-03-05 00:44:00,
2013-03-04 15:49:00,33.2,13.7,30.50,East,97,0.0,2.0,44,0.00,,---,0.00,VWS V14.01,2013-03-05 00:49:00,
2013-03-04 15:54:00,33.3,14.3,30.50,East,97,0.0,2.0,45,0.00,,---,0.00,VWS V14.01,2013-03-05 00:54:00,
2013-03-04 15:59:00,33.3,13.8,30.50,East,97,1.0,2.0,44,0.00,,---,0.00,VWS V14.01,2013-03-05 00:59:00,
2013-03-04 16:00:00,31.5,14.6,30.49,South,169,1.0,2.0,49,0.00,,---,0.00,VWS V14.01,2013-03-05 01:00:00,
2013-03-04 16:04:00,33.2,13.7,30.50,East,97,0.0,1.0,44,0.00,,---,0.00,VWS V14.01,2013-03-05 01:04:00,
2013-03-04 16:09:00,33.1,14.1,30.49,East,97,0.0,2.0,45,0.00,,---,0.00,VWS V14.01,2013-03-05 01:09:00,
2013-03-04 16:14:00,33.2,14.2,30.50,East,97,0.0,2.0,45,0.00,,---,0.00,VWS V14.01,2013-03-05 01:14:00,
2013-03-04 16:19:00,33.4,13.9,30.50,East,97,0.0,4.0,44,0.00,,---,0.00,VWS V14.01,2013-03-05 01:19:00,
2013-03-04 16:24:00,33.4,13.9,30.50,East,97,0.0,4.0,44,0.00,,---,0.00,VWS V14.01,2013-03-05 01:24:00,
2013-03-04 16:29:00,33.4,14.4,30.50,South,169,2.0,5.0,45,0.00,,---,0.00,VWS V14.01,2013-03-05 01:29:00,
2013-03-04 16:30:00,30.3,13.9,30.48,SSE,168,0.0,2.0,50,0.00,,---,0.00,VWS V14.01,2013-03-05 01:30:00,
2013-03-04 16:34:00,33.1,14.1,30.50,South,169,0.0,2.0,45,0.00,,---,0.00,VWS V14.01,2013-03-05 01:34:00,
2013-03-04 16:39:00,32.9,13.9,30.50,South,169,0.0,2.0,45,0.00,,---,0.00,VWS V14.01,2013-03-05 01:39:00,
2013-03-04 16:44:00,32.7,14.2,30.50,South,169,0.0,2.0,46,0.00,,---,0.00,VWS V14.01,2013-03-05 01:44:00,
2013-03-04 16:49:00,32.5,14.0,30.49,South,169,0.0,2.0,46,0.00,,---,0.00,VWS V14.01,2013-03-05 01:49:00,
2013-03-04 16:54:00,32.3,14.3,30.49,South,169,0.0,2.0,47,0.00,,---,0.00,VWS V14.01,2013-03-05 01:54:00,
2013-03-04 16:59:00,31.7,14.7,30.49,South,169,0.0,2.0,49,0.00,,---,0.00,VWS V14.01,2013-03-05 01:59:00,
2013-03-04 17:00:00,30.1,12.8,30.47,South,169,0.0,1.0,48,0.00,,---,0.00,VWS V14.01,2013-03-05 02:00:00,
2013-03-04 17:04:00,31.2,14.7,30.49,South,169,0.0,1.0,50,0.00,,---,0.00,VWS V14.01,2013-03-05 02:04:00,
2013-03-04 17:09:00,30.9,14.9,30.49,South,169,0.0,2.0,51,0.00,,---,0.00,VWS V14.01,2013-03-05 02:09:00,
2013-03-04 17:14:00,30.7,14.7,30.49,South,169,0.0,2.0,51,0.00,,---,0.00,VWS V14.01,2013-03-05 02:14:00,
2013-03-04 17:19:00,30.6,14.6,30.49,South,169,0.0,2.0,51,0.00,,---,0.00,VWS V14.01,2013-03-05 02:19:00,
2013-03-04 17:24:00,30.5,14.5,30.49,South,169,0.0,2.0,51,0.00,,---,0.00,VWS V14.01,2013-03-05 02:24:00,
2013-03-04 17:29:00,30.3,14.4,30.48,South,169,0.0,2.0,51,0.00,,---,0.00,VWS V14.01,2013-03-05 02:29:00,
2013-03-04 17:30:00,30.5,13.2,30.47,ESE,110,1.0,2.0,48,0.00,,---,0.00,VWS V14.01,2013-03-05 02:30:00,
2013-03-04 17:34:00,30.3,13.9,30.48,SSE,168,0.0,1.0,50,0.00,,---,0.00,VWS V14.01,2013-03-05 02:34:00,
2013-03-04 17:39:00,30.3,13.4,30.48,SSE,168,0.0,1.0,49,0.00,,---,0.00,VWS V14.01,2013-03-05 02:39:00,
2013-03-04 17:44:00,30.3,13.0,30.48,South,169,0.0,1.0,48,0.00,,---,0.00,VWS V14.01,2013-03-05 02:44:00,
2013-03-04 17:49:00,30.3,13.0,30.48,SSE,168,0.0,1.0,48,0.00,,---,0.00,VWS V14.01,2013-03-05 02:49:00,
2013-03-04 17:54:00,30.3,12.5,30.48,South,169,0.0,1.0,47,0.00,,---,0.00,VWS V14.01,2013-03-05 02:54:00,
2013-03-04 17:59:00,30.2,12.9,30.48,SSE,168,0.0,1.0,48,0.00,,---,0.00,VWS V14.01,2013-03-05 02:59:00,
2013-03-04 18:00:00,30.8,13.0,30.46,ESE,110,0.0,2.0,47,0.00,,---,0.00,VWS V14.01,2013-03-05 03:00:00,
2013-03-04 18:04:00,30.2,12.9,30.47,South,169,0.0,1.0,48,0.00,,---,0.00,VWS V14.01,2013-03-05 03:04:00,
2013-03-04 18:09:00,30.2,12.4,30.47,SSE,168,1.0,2.0,47,0.00,,---,0.00,VWS V14.01,2013-03-05 03:09:00,
2013-03-04 18:14:00,30.3,12.5,30.47,SSE,168,0.0,2.0,47,0.00,,---,0.00,VWS V14.01,2013-03-05 03:14:00,
2013-03-04 18:19:00,30.3,12.5,30.47,ESE,110,0.0,2.0,47,0.00,,---,0.00,VWS V14.01,2013-03-05 03:19:00,
2013-03-04 18:24:00,30.4,13.1,30.47,ESE,110,0.0,2.0,48,0.00,,---,0.00,VWS V14.01,2013-03-05 03:24:00,
2013-03-04 18:29:00,30.4,13.1,30.47,ESE,110,0.0,2.0,48,0.00,,---,0.00,VWS V14.01,2013-03-05 03:29:00,
2013-03-04 18:30:00,31.0,13.1,30.46,ESE,107,0.0,2.0,47,0.00,,---,0.00,VWS V14.01,2013-03-05 03:30:00,
2013-03-04 18:34:00,30.5,13.2,30.47,ESE,110,0.0,1.0,48,0.00,,---,0.00,VWS V14.01,2013-03-05 03:34:00,
2013-03-04 18:39:00,30.6,13.3,30.47,ESE,110,0.0,2.0,48,0.00,,---,0.00,VWS V14.01,2013-03-05 03:39:00,
2013-03-04 18:44:00,30.8,13.9,30.47,ESE,110,0.0,2.0,49,0.00,,---,0.00,VWS V14.01,2013-03-05 03:44:00,
2013-03-04 18:49:00,30.8,13.4,30.47,ESE,110,0.0,2.0,48,0.00,,---,0.00,VWS V14.01,2013-03-05 03:49:00,
2013-03-04 18:54:00,30.7,13.4,30.46,ESE,110,0.0,2.0,48,0.00,,---,0.00,VWS V14.01,2013-03-05 03:54:00,
2013-03-04 18:59:00,30.7,12.9,30.47,ESE,110,0.0,2.0,47,0.00,,---,0.00,VWS V14.01,2013-03-05 03:59:00,
2013-03-04 19:00:00,31.5,13.1,30.45,ESE,103,0.0,4.0,46,0.00,,---,0.00,VWS V14.01,2013-03-05 04:00:00,
2013-03-04 19:04:00,30.8,13.0,30.46,ESE,110,1.0,1.0,47,0.00,,---,0.00,VWS V14.01,2013-03-05 04:04:00,
2013-03-04 19:09:00,30.9,13.1,30.47,ESE,108,1.0,2.0,47,0.00,,---,0.00,VWS V14.01,2013-03-05 04:09:00,
2013-03-04 19:14:00,30.9,13.1,30.46,ESE,108,0.0,2.0,47,0.00,,---,0.00,VWS V14.01,2013-03-05 04:14:00,
2013-03-04 19:19:00,30.8,12.5,30.46,ESE,108,0.0,2.0,46,0.00,,---,0.00,VWS V14.01,2013-03-05 04:19:00,
2013-03-04 19:24:00,30.8,12.5,30.46,ESE,108,0.0,2.0,46,0.00,,---,0.00,VWS V14.01,2013-03-05 04:24:00,
2013-03-04 19:29:00,30.8,12.5,30.46,ESE,108,1.0,2.0,46,0.00,,---,0.00,VWS V14.01,2013-03-05 04:29:00,
2013-03-04 19:30:00,31.2,12.8,30.44,ESE,103,0.0,2.0,46,0.00,,---,0.00,VWS V14.01,2013-03-05 04:30:00,
2013-03-04 19:34:00,31.0,12.7,30.46,ESE,107,0.0,2.0,46,0.00,,---,0.00,VWS V14.01,2013-03-05 04:34:00,
2013-03-04 19:39:00,31.1,12.8,30.46,ESE,107,1.0,2.0,46,0.00,,---,0.00,VWS V14.01,2013-03-05 04:39:00,
2013-03-04 19:44:00,31.2,12.8,30.46,ESE,105,0.0,4.0,46,0.00,,---,0.00,VWS V14.01,2013-03-05 04:44:00,
2013-03-04 19:49:00,31.3,12.9,30.45,ESE,104,0.0,4.0,46,0.00,,---,0.00,VWS V14.01,2013-03-05 04:49:00,
2013-03-04 19:54:00,31.4,13.0,30.45,ESE,103,0.0,4.0,46,0.00,,---,0.00,VWS V14.01,2013-03-05 04:54:00,
2013-03-04 19:59:00,31.5,13.1,30.45,ESE,103,2.0,4.0,46,0.00,,---,0.00,VWS V14.01,2013-03-05 04:59:00,
2013-03-04 20:00:00,31.5,13.1,30.45,ESE,103,0.0,4.0,46,0.00,,---,0.00,VWS V14.01,2013-03-05 05:00:00,
2013-03-04 20:05:00,31.5,12.6,30.45,ESE,103,0.0,0.0,45,0.00,,---,0.00,VWS V14.01,2013-03-05 05:05:00,
2013-03-04 20:10:00,31.5,13.6,30.45,ESE,103,0.0,2.0,47,0.00,,---,0.00,VWS V14.01,2013-03-05 05:10:00,
2013-03-04 20:15:00,31.5,13.1,30.45,ESE,103,0.0,2.0,46,0.00,,---,0.00,VWS V14.01,2013-03-05 05:15:00,
2013-03-04 20:20:00,31.4,12.5,30.44,ESE,103,0.0,2.0,45,0.00,,---,0.00,VWS V14.01,2013-03-05 05:20:00,
2013-03-04 20:25:00,31.3,12.9,30.44,ESE,103,0.0,2.0,46,0.00,,---,0.00,VWS V14.01,2013-03-05 05:25:00,
2013-03-04 20:30:00,31.2,12.8,30.44,ESE,103,0.0,2.0,46,0.00,,---,0.00,VWS V14.01,2013-03-05 05:30:00,
2013-03-04 20:35:00,31.1,12.2,30.44,ESE,103,0.0,1.0,45,0.00,,---,0.00,VWS V14.01,2013-03-05 05:35:00,
2013-03-04 20:40:00,30.9,12.6,30.44,ESE,103,1.0,1.0,46,0.00,,---,0.00,VWS V14.01,2013-03-05 05:40:00,
2013-03-04 20:45:00,30.6,12.3,30.44,ESE,103,0.0,1.0,46,0.00,,---,0.00,VWS V14.01,2013-03-05 05:45:00,
2013-03-04 21:00:00,30.6,11.8,30.43,East,90,0.0,3.0,45,0.00,,---,0.00,VWS V14.01,2013-03-05 06:00:00,
2013-03-04 21:30:00,30.4,12.6,30.42,East,90,0.0,2.0,47,0.00,,---,0.00,VWS V14.01,2013-03-05 06:30:00,
2013-03-04 22:00:00,30.3,12.0,30.42,East,90,0.0,2.0,46,0.00,,---,0.00,VWS V14.01,2013-03-05 07:00:00,
2013-03-04 22:30:00,30.3,11.5,30.41,East,90,0.0,5.0,45,0.00,,---,0.00,VWS V14.01,2013-03-05 07:30:00,
2013-03-04 23:00:00,30.1,11.3,30.40,NE,45,0.0,4.0,45,0.00,,---,0.00,VWS V14.01,2013-03-05 08:00:00,
2013-03-04 23:30:00,30.3,11.5,30.39,East,90,1.0,6.0,45,0.00,,---,0.00,VWS V14.01,2013-03-05 08:30:00,